This is the latest recevied weather packets stored in our database for station/object HB9EYW-6. If no packets are shown the sender has not sent any weather packets the latest 1 day(s).
| Time | Temp. | Humidity | Pressure | Rain* | Wind** | Luminosity | Snow |
|---|---|---|---|---|---|---|---|
| 1777998604 | 19.44° C | 50% | 0 hPa | 0 mm | 0 m/s | - | - |
| 1777998304 | 19.44° C | 50% | 0 hPa | 0 mm | 0 m/s | - | - |
| 1777998004 | 20° C | 49% | 0 hPa | 0 mm | 0 m/s | - | - |
| 1777997704 | 20° C | 49% | 0 hPa | 0 mm | 0 m/s | - | - |
| 1777997404 | 20° C | 47% | 0 hPa | 0 mm | 0 m/s | - | - |
| 1777997104 | 20° C | 49% | 0 hPa | 0 mm | 0 m/s | - | - |
| 1777996804 | 20° C | 49% | 0 hPa | 0 mm | 0 m/s | - | - |
| 1777996504 | 20.56° C | 51% | 0 hPa | 0 mm | 0 m/s | - | - |
| 1777996204 | 20° C | 55% | 0 hPa | 0 mm | 0 m/s | - | - |
| 1777995904 | 19.44° C | 59% | 0 hPa | 0 mm | 0 m/s | - | - |
| 1777995604 | 18.33° C | 61% | 0 hPa | 0 mm | 0.45 m/s, 262° | - | - |
| 1777995304 | 17.78° C | 61% | 0 hPa | 0 mm | 0 m/s | - | - |
| 1777995004 | 17.78° C | 62% | 0 hPa | 0 mm | 0.45 m/s, 224° | - | - |
| 1777994704 | 17.78° C | 63% | 0 hPa | 0 mm | 0 m/s | - | - |
| 1777994404 | 17.22° C | 63% | 0 hPa | 0 mm | 0 m/s | - | - |
| 1777994104 | 17.22° C | 63% | 0 hPa | 0 mm | 0.45 m/s, 276° | - | - |
| 1777993804 | 17.22° C | 64% | 0 hPa | 0 mm | 0 m/s | - | - |
| 1777993504 | 17.22° C | 64% | 0 hPa | 0 mm | 0.45 m/s, 275° | - | - |
| 1777993204 | 17.22° C | 64% | 0 hPa | 0 mm | 0.45 m/s, 288° | - | - |
| 1777992904 | 17.22° C | 64% | 0 hPa | 0 mm | 0 m/s | - | - |
| 1777992604 | 16.67° C | 65% | 0 hPa | 0 mm | 0 m/s | - | - |
| 1777992304 | 16.67° C | 65% | 0 hPa | 0 mm | 0.45 m/s, 257° | - | - |
| 1777992004 | 16.67° C | 65% | 0 hPa | 0 mm | 0.89 m/s, 294° | - | - |
| 1777991704 | 16.67° C | 65% | 0 hPa | 0 mm | 0 m/s | - | - |
| 1777991404 | 16.67° C | 66% | 0 hPa | 0 mm | 0.45 m/s, 265° | - | - |
* Rain latest hour (hover to see other rain measurements)
** Current wind speed in m/s (hover to see current wind gust speed)